Tracking 19717 objects as of 24-Jun-2019
HD Live streaming from Space Station
objects crossing your sky now

METEOR 2-8 DEB

Track METEOR 2-8 DEB now!
10-day predictions


NORAD ID: 36343
Int'l Code: 1982-025AD
Perigee: 855.2 km
Apogee: 888.6 km
Inclination: 82.5 °
Period: 102.2 minutes
Semi major axis: 7242 km
RCS: 0.0095 m2 (small)
Launch date: March 25, 1982
Source: Commonwealth of Independent States (former USSR) (CIS)
Launch site: PLESETSK MISSILE AND SPACE COMPLEX (PKMTR)

Note: This is SATELLITE DEBRIS
aabbcc
Your satellite tracking list
Your tracking list is empty




NASA's NSSDC Master Catalog

Two Line Element Set (TLE):
1 36343U 82025AD  19173.72474611  .00000332  00000-0  18429-3 0  9994
2 36343  82.5129 179.1796 0023051 124.3916 235.9442 14.08437959786555
Source of the keplerian elements: AFSPC